#timestamp,LO_Frequency,Hit,StdDev 
1642784415.1,286046996.9,N
1642784416.0,286046996.9,N
1642784435.8,286047000.4,N
1642784455.7,286046998.5,N
1642784475.5,286047000.3,N
1642784495.3,286046998.1,N
1642784515.2,286046996.9,N
1642784535.0,286046996.4,N
1642784535.9,286046996.4,N
1642784555.8,286046996.0,N
1642784575.6,286046994.0,Y
1642784595.4,286046995.4,P
1642784615.3,286046997.6,N
1642784635.1,286046997.3,N
1642784655.8,286046997.3,N
1642784675.7,286046997.3,N
1642784695.5,286046996.8,Y
1642784715.4,286047002.8,P
1642784735.2,286047001.5,N
1642784755.0,286047002.8,N
1642784755.9,286047002.8,N
1642784775.8,286047000.1,N
1642784795.6,286047002.5,N
1642784815.4,286047002.4,N
1642784835.3,286046999.8,N
1642784855.1,286047000.9,N
1642784875.9,286047000.8,N
1642784895.7,286046998.5,N
1642784915.5,286046998.5,N
1642784935.4,286046999.3,N
1642784955.2,286046998.2,N
1642784975.0,286046998.6,N
1642784976.0,286046998.6,N
1642784995.8,286047000.6,N
1642785015.6,286047000.4,N
1642785035.5,286047000.9,N
1642785055.3,286046998.4,N
1642785075.1,286047001.2,N
1642785095.9,286047000.2,N
1642785115.7,286047002.7,N
1642785135.5,286047002.2,N
1642785155.4,286047002.0,N
1642785175.2,286047002.5,N
1642785195.1,286047002.8,N
1642785196.0,286047002.8,N
1642785215.8,286047001.3,N
1642785235.6,286047004.1,N
1642785255.5,286047004.4,N
1642785275.3,286047004.2,N
1642785295.2,286047003.3,N
1642785315.9,286047003.8,N
1642785335.7,286047005.9,Y
1642785355.6,286047001.3,P
1642785375.4,286047003.1,P
1642785395.2,286047004.2,P
1642785415.1,286047001.3,N
1642785416.0,286047001.3,N
1642785435.8,286047002.6,N
1642785455.7,286047001.6,N
1642785475.5,286047002.4,N
1642785495.3,286047000.0,N
1642785515.2,286046999.7,N
1642785535.0,286047000.6,N
1642785535.9,286047000.6,N
1642785555.8,286047002.4,N
1642785575.6,286047002.3,N
1642785595.4,286047000.5,N
1642785615.3,286046999.4,N
1642785635.1,286046999.0,N
1642785655.8,286046999.0,N
1642785675.7,286047001.0,N
1642785695.5,286046998.2,N
1642785715.4,286046998.2,N
1642785735.2,286047000.5,N
1642785755.0,286047000.1,N
1642785755.9,286047000.1,N
1642785775.8,286046999.9,N
1642785795.6,286047000.1,N
1642785815.5,286047000.1,N
1642785835.3,286047000.1,N
1642785855.1,286047001.8,N
1642785875.9,286047002.1,N
1642785895.7,286047002.2,N
1642785915.5,286047003.2,N
1642785935.4,286047003.8,N
1642785955.2,286047001.4,N
1642785975.0,286047003.7,N
1642785976.0,286047003.7,N
1642785995.8,286047003.1,N
1642786015.6,286047003.5,N
1642786035.5,286047006.0,Y
1642786055.3,286047005.7,P
1642786075.1,286047003.8,N
1642786095.9,286047005.7,N
1642786115.7,286047005.6,N
1642786135.6,286047004.2,N
1642786155.4,286047003.7,N
1642786175.2,286047003.2,N
1642786195.1,286047003.5,N
1642786196.0,286047003.5,N
1642786215.8,286047005.8,Y
1642786235.7,286046999.9,P
1642786255.5,286047001.0,N
1642786275.3,286047001.1,N
1642786295.2,286046999.0,N
1642786315.0,286047000.8,N
1642786315.9,286047000.8,N
1642786335.8,286046998.2,N
1642786355.6,286047000.2,N
1642786375.4,286047000.4,N
1642786395.3,286047001.1,N
1642786415.1,286046998.1,N
1642786435.8,286046998.5,N
1642786455.7,286046998.5,N
1642786475.5,286046998.9,N
1642786495.4,286046998.8,N
1642786515.2,286046998.5,N
1642786535.0,286047000.7,N
1642786535.9,286047000.7,N
1642786555.8,286046998.2,N
1642786575.6,286046998.7,N
1642786595.4,286046996.9,N
1642786615.3,286046996.9,N
1642786635.1,286046996.8,N
1642786655.9,286046995.3,N
1642786675.7,286046996.0,N
1642786695.5,286046995.2,N
1642786715.4,286046995.1,N
1642786735.2,286046996.8,N
1642786755.0,286046999.6,N
1642786756.0,286046999.6,N
1642786775.8,286046997.5,N
1642786795.6,286046997.4,N
1642786815.5,286046996.8,N
1642786835.3,286046996.5,N
1642786855.1,286046999.4,N
1642786875.9,286047001.2,N
1642786895.8,286046998.9,N
1642786915.6,286046997.4,N
1642786935.5,286046997.6,N
1642786955.3,286046997.5,N
1642786975.1,286046996.8,N
1642786995.9,286046995.3,Y
1642787015.7,286046999.3,P
1642787035.5,286046999.0,N
1642787055.4,286046999.6,N
1642787075.2,286047000.7,N
1642787095.1,286047000.5,N
1642787096.0,286047000.5,N
1642787115.8,286047002.7,N
1642787135.6,286047000.7,N
1642787155.5,286047000.9,N
1642787175.3,286047000.7,N
1642787195.1,286047000.0,N
1642787215.9,286047000.1,N
1642787235.7,286047000.9,N
1642787255.6,286047000.9,N
1642787275.4,286047001.0,N
1642787295.2,286046999.9,N
1642787315.1,286047000.1,N
1642787316.0,286047000.1,N
1642787335.8,286047000.6,N
1642787355.6,286047002.8,N
1642787375.5,286047000.1,N
1642787395.3,286047002.0,N
1642787415.2,286047000.9,N
1642787435.9,286047001.2,N
1642787455.7,286046998.3,N
1642787475.6,286047000.7,N
1642787495.4,286047001.1,N
1642787515.2,286047000.2,N
1642787535.1,286047000.4,N
1642787536.0,286047000.4,N
1642787555.8,286047002.4,N
1642787575.7,286046999.7,N
1642787595.5,286047000.0,N
1642787615.3,286047000.1,N
1642787635.2,286046999.0,N
1642787655.0,286046998.2,N
1642787655.9,286046998.2,N
1642787675.8,286047001.0,N
1642787695.6,286046998.6,N
1642787715.4,286046999.3,N
1642787735.3,286046998.1,N
1642787755.1,286046999.4,N
1642787775.8,286046996.7,N
1642787795.7,286046999.2,N
1642787815.5,286047001.2,N
1642787835.4,286046998.2,N
1642787855.2,286047000.6,N
1642787875.0,286047001.2,N
1642787875.9,286047001.2,N
1642787895.8,286047001.0,N
1642787915.6,286046998.5,N
1642787935.4,286046998.7,N
1642787955.3,286046999.5,N
1642787975.1,286046998.7,N
1642787995.9,286046998.4,N
